Address 0x9f43427ca3776f00246e8a52b7373ec724b00402

Txn Hash Method
Block
From
To
Value [Txn Fee]
0xb07f4f7d839da06152504ca738692b3dd432ce5c7b51896e9bd0fed4bc1cea00Transfer197261822023-06-09 8:26:049 mins ago0x9f43427ca3776f00246e8a52b7373ec724b00402OUT0x3e954860e15a7a1edc2da3b21535a2990ad62d740.9 CELO0.000546
0x0803e3dd1e87802581e47cbabcf4797fb8b85268612eb2d15f0159364d6d61b5Transfer197260982023-06-09 8:19:0416 mins ago0x9f43427ca3776f00246e8a52b7373ec724b00402OUT0x31209d22f58123d794e39fdf6372a77117b4d60f0.9 CELO0.000546
0x18b5542d1d973f0f7ba6e9a233bbc658eebc6c11f95800dd596eea295354d1cfTransfer197260922023-06-09 8:18:3416 mins ago0x9f43427ca3776f00246e8a52b7373ec724b00402OUT0xbd2d7f5bffe3d48f1468908bcad07f2953bb59620.001 CELO0.000546
0x9e4f610a3e125e398eb0c176387770fcdf3450de6a35e48171a7e94ee8de4aefTransfer197255702023-06-09 7:35:041 hr ago0x9f43427ca3776f00246e8a52b7373ec724b00402OUT0xf74bac410bcf3c55af7a9a0caef8f9c83087a3a423.08 CELO0.000546
0x53f7490c012148a7ad76e4ecd0d33b03a05a0ff40d02a810a5eaa72b43f1232eTransfer197243222023-06-09 5:51:042 hrs 44 mins ago0x9f43427ca3776f00246e8a52b7373ec724b00402OUT0x2634db9607a7672708c403f755ea9da71e9780041.9 CELO0.000546
0x8f98e5a32399af0904d11eb039b50e18ce855a7f0eb2f699ee44d9c63cad2828Transfer197234462023-06-09 4:38:043 hrs 57 mins ago0x9f43427ca3776f00246e8a52b7373ec724b00402OUT0x85290e50db8870a48045c82b5b109e73fe561f708.9 CELO0.000546
0xa9f40c245784d1bf825649b87899fbfec49e6cc60cbe5fcf1b0f87a4de89206cTransfer197234272023-06-09 4:36:293 hrs 58 mins ago0xd6696314bcf61a3158050f3256f0a95111fb7ce3 IN 0x9f43427ca3776f00246e8a52b7373ec724b00402209.615654 CELO0.000546
0x751fafcc701f5b47d1313ad48f312ada91fd6690cacbf255b0f2e73fce04319eTransfer197234102023-06-09 4:35:044 hrs ago0x9f43427ca3776f00246e8a52b7373ec724b00402OUT0x45b512144dc6ae1434f597d158def8a98820724c9.9 CELO0.000546
0x68246ec2b3d1e14aaa9ec80eccac9225cac909e2743e8ae702ea2fe0a48bc909Transfer197233742023-06-09 4:32:044 hrs 3 mins ago0x9f43427ca3776f00246e8a52b7373ec724b00402OUT0xb82c78576febde1ced39b63afc46f602f08067489.9 CELO0.000546
0x1edd452d6f5d169eaf6adad908184efa5b9d285fa726952c7e79ef312b1d842cTransfer197233622023-06-09 4:31:044 hrs 4 mins ago0x9f43427ca3776f00246e8a52b7373ec724b00402OUT0xd1eb39893c212d2b10cdfca58029b4f99896a1779.9 CELO0.000546
0x56b998b7fb4f26887576b230be81bef14b59b620ae37c62e124264a1c1377cd1Transfer197233262023-06-09 4:28:044 hrs 7 mins ago0x9f43427ca3776f00246e8a52b7373ec724b00402OUT0x6aef21b8e10b47418d6e31b564ff87fc6f79d58d9.9 CELO0.000546
0xb0d29ab17cfce0e3e017d8ea8de911677f116e4677ba879fc4db2643018747fdTransfer197233022023-06-09 4:26:044 hrs 9 mins ago0x9f43427ca3776f00246e8a52b7373ec724b00402OUT0x19a6e98913c9416b4798c10b6253b111e8d169b39.9 CELO0.000546
0xdd8afec0014caf8305e9978a05e3910650a5f265be8fa4a1d0a7bacb8a3488eeTransfer197232902023-06-09 4:25:044 hrs 10 mins ago0x9f43427ca3776f00246e8a52b7373ec724b00402OUT0xcc54064ce96901f1897dddd25a28475ab5b9d2ae9.9 CELO0.000546
0x9488a486cfb1446a46ba59de2f6e482b8834dae3858e709fcff2b81e07e28946Transfer197232422023-06-09 4:21:044 hrs 14 mins ago0x9f43427ca3776f00246e8a52b7373ec724b00402OUT0x588fb5140630d8c3686b79764bc4c8e08799accd8.9 CELO0.000546
0x8f18c8d339afc1f9c286a20924115f4cfd4761ff2dca42f5aca4459c7c3870caTransfer197232302023-06-09 4:20:044 hrs 15 mins ago0x9f43427ca3776f00246e8a52b7373ec724b00402OUT0x9729334add4fe99d116e689ba11ec34e6c214a728.9 CELO0.000546
0x7196976f8f826b6b6be2c3cdaa41f0328235ff3b393b73772af7b706f477b85eTransfer197229232023-06-09 3:54:294 hrs 40 mins ago0x885be15018323497909ca5604ec761f3e5c254d1 IN 0x9f43427ca3776f00246e8a52b7373ec724b0040211.623008331151391 CELO0.000546
0xbae8f07ce1c2cc2cd88c691d8dc751dabab356da84ba0664ad6f0f3c416777d4Transfer197220182023-06-09 2:39:045 hrs 56 mins ago0x9f43427ca3776f00246e8a52b7373ec724b00402OUT0xbc1373632a14665ca9667453095e3bca2cc1b864854.97 CELO0.000546
0x5d6ef9f8c0e7dce8e5acf0e52d322f680aabbc3c044b63338ec9a34e3323f0bfTransfer197217662023-06-09 2:18:046 hrs 17 mins ago0x9f43427ca3776f00246e8a52b7373ec724b00402OUT0xbc1373632a14665ca9667453095e3bca2cc1b8642.9 CELO0.000546
0x1a58c33b5eaee2b11e7d12b539dd50125c958d6f9e4b6deaa389b3ab69471357Transfer197212382023-06-09 1:34:047 hrs 1 min ago0x9f43427ca3776f00246e8a52b7373ec724b00402OUT0x3e11e5d8b4d3d68b0fcd1b288f1103a8ee80ceab317.49354 CELO0.000546
0xba84f3e60081cf54c631486acf8d0d929b886925f04d337751afb5b354d46907Transfer197211542023-06-09 1:27:047 hrs 8 mins ago0x9f43427ca3776f00246e8a52b7373ec724b00402OUT0x3e11e5d8b4d3d68b0fcd1b288f1103a8ee80ceab477.8422 CELO0.000546
0x04219853ca88cc1c1240a9d0b80e2536a4b77479308e78dbb9448b0727343c86Transfer197210342023-06-09 1:17:047 hrs 18 mins ago0x9f43427ca3776f00246e8a52b7373ec724b00402OUT0x6820442229778647b77ca1bb1746d1966debe3ea1,231.07773109 CELO0.000546
0xead64091c959e197f6f83525912d6e50d599d2cbabbfe32d7078764e5f2aeea7Transfer197208902023-06-09 1:05:047 hrs 30 mins ago0x9f43427ca3776f00246e8a52b7373ec724b00402OUT0x3e11e5d8b4d3d68b0fcd1b288f1103a8ee80ceab170.91728 CELO0.000546
0xe2bf70d952b227b1b117b088371bb0f8809d74af106a805065ce026e0c544d1cTransfer197205422023-06-09 0:36:047 hrs 59 mins ago0x9f43427ca3776f00246e8a52b7373ec724b00402OUT0x55983d3d7baf3581ac686f0696770695345d972111.9 CELO0.000546
0x392cc1aff81cd5729d70ff61b2ca4c6cf4fa26fbe150a5b1e187bc04de68a81eTransfer197189382023-06-08 22:22:2410 hrs 12 mins ago0x9f43427ca3776f00246e8a52b7373ec724b00402OUT0x5c8b316555b2e77f05d354f8d509543cc1fd51f30.001 CELO0.000546
0xd93bae46ecc839e6900e7ffc3fbbfc7d00bf0341249d6e6095864c6125e6b36dTransfer197188922023-06-08 22:18:3410 hrs 16 mins ago0x9f43427ca3776f00246e8a52b7373ec724b00402OUT0x5c8b316555b2e77f05d354f8d509543cc1fd51f30.001 CELO0.000546
[ Download CSV Export 
Parent Txn Hash Block From To Value
Loading

Contract Name:
0

Compiler Version
0

Optimization Enabled:
0

Other Settings:
-NA-
Block Transaction Gas Used Reward
Age Block Fee Address BC Fee Address Voting Power Jailed Incoming
Block Uncle Number Difficulty Gas Used Reward
Loading
Make sure to use the "Vote Down" button for any spammy posts, and the "Vote Up" for interesting conversations.